Weather Roundup
Issued by NWS

Home | Current Version | Previous Version | Graphics & Text | Print | Product List | Glossary Off
Versions: 1 2 3 4 5 6 7 8 9 10 11 12 13 14 15 16 17 18 19 20 21 22 23 24 25 26 27 28 29 30 31 32 33 34 35 36 37 38 39 40 41 42 43 44 45 46 47 48 49 50

000
NZUS93 KARX 292310
HRRWXR

CURRENT HOURLY OBSERVATIONS ACROSS
MUCH OF THE UPPER MISSISSIPPI VALLEY
NATIONAL WEATHER SERVICE LA CROSSE WI
600 PM CDT FRI AUG 29 2014


...SOUTHEAST MINNESOTA...


CITY           SKY/WX    TMP DP  RH WIND       PRES   REMARKS
ROCHESTER      MOSUNNY   77  69  76 W6        29.77R
ROCHESTER/MAYO FAIR      77  65  66 SW7       29.76R
WINONA         PTSUNNY   70  66  88 CALM      29.75F
AUSTIN         CLOUDY    77  66  69 NW12      29.77R
ALBERT LEA     CLOUDY    75  70  83 W6        29.77S
DODGE CENTER   PTSUNNY   77  72  83 SW9       29.77R
PRESTON          N/A     74  74 100 CALM      29.77S THUNDER
OWATONNA       CLOUDY    75  70  83 SW5       29.77R
FARIBAULT      PTSUNNY   79  66  65 SW5       29.76R
$$

...ELSEWHERE IN MINNESOTA...


CITY           SKY/WX    TMP DP  RH WIND       PRES   REMARKS
MINNEAPOLIS    LGT RAIN  70  68  93 NW6       29.74R
INTNL FALLS    CLOUDY    70  62  76 S3        29.76R
DULUTH         LGT RAIN  64  61  90 SE5       29.76S FOG
RED WING       PTSUNNY   73  70  88 NE5       29.73R
REDWOOD FALLS  LGT RAIN  67  65  93 NW6       29.76S FOG
MANKATO        CLOUDY    75  66  73 SW9       29.76R
WORTHINGTON    CLOUDY    70  68  94 S6        29.80R
FAIRMONT       CLOUDY    72  64  78 W6        29.78R
$$

...SOUTHWEST WISCONSIN...


CITY           SKY/WX    TMP DP  RH WIND       PRES   REMARKS
LA CROSSE      MOSUNNY   85  71  63 S9        29.74R HX  90
PRAIRIE DU CHI MOSUNNY  N/A N/A N/A SE9       29.76S
BOSCOBEL       MOSUNNY   86  68  54 S7        29.77F
LONE ROCK      SUNNY     88  71  57 S10       29.79S HX  94
PLATTEVILLE    SUNNY     82  70  66 S9        29.82F
FORT MC COY    MOSUNNY   83  67  58 S8        29.78R
CAMP DOUGLAS   SUNNY     83  73  71 VRB5      29.79R
VIROQUA        FAIR      81  69  67 S9        29.80R
WIS DELLS      MOSUNNY   84  67  58 S12       29.80S
$$

...ELSEWHERE IN WISCONSIN...


CITY           SKY/WX    TMP DP  RH WIND       PRES   REMARKS
MILWAUKEE      PTSUNNY   78  71  79 S15       29.87S
MADISON        MOSUNNY   84  70  62 S15G23    29.82F
GREEN BAY      MOSUNNY   79  73  82 SE10      29.82R
EAU CLAIRE     CLOUDY    71  69  93 CALM      29.76R THUNDER
BLACK RVR FLS  FAIR      81  70  69 S6        29.75S
MEDFORD        CLOUDY    74  70  89 SE5       29.80S
WAUSAU         MOSUNNY   80  71  74 S7        29.79S
WIS RAPIDS     MOSUNNY   83  70  64 S7        29.81R
MARSHFIELD     MOSUNNY   76  66  71 S8        29.79S
RICE LAKE      CLOUDY    69  67  92 SE3       29.76F
$$

...NORTHEAST IOWA...


CITY           SKY/WX    TMP DP  RH WIND       PRES   REMARKS
WATERLOO       RAIN      70  65  84 S7        29.77F
DUBUQUE        MOSUNNY   80  70  71 S9        29.81F
DECORAH        PTSUNNY   79  68  69 SW9G26    29.78R
MASON CITY     CLOUDY    78  70  76 SW8       29.78F
CHARLES CITY   HVY RAIN  72  68  88 VRB6G12   29.78S
OELWEIN        CLOUDY    79  72  78 S8        29.79S
$$

...ELSEWHERE IN IOWA...


CITY           SKY/WX    TMP DP  RH WIND       PRES   REMARKS
DES MOINES     LGT RAIN  72  67  84 SW7       29.78F
IOWA CITY      CLOUDY    80  70  71 S7        29.81S
FORT DODGE     CLOUDY    75  70  83 SW5       29.79S
MARSHALLTOWN   LGT RAIN  70  68  93 S7        29.78F FOG
CEDAR RAPIDS   CLOUDY    74  65  73 SW10G30   29.81R THUNDER
$$

...NORTHERN ILLINOIS...


CITY           SKY/WX    TMP DP  RH WIND       PRES   REMARKS
CHICAGO-OHARE  PTSUNNY   84  68  58 S16       29.88S
DUPAGE         MOSUNNY   84  71  65 S10       29.88S
CHICAGO-MIDWAY PTSUNNY   84  74  71 SE14G21   29.89S HX  91
MOLINE         MOSUNNY   82  71  69 S6        29.81F
ROCKFORD       MOSUNNY   83  71  67 S13       29.87S
STERLING       SUNNY     84  72  65 S7        29.84F
PEORIA         PTSUNNY   77  70  79 SE5       29.85F
$$

NOTE: "FAIR" INDICATES FEW OR NO CLOUDS BELOW 12,000 FEET WITH NO
SIGNIFICANT WEATHER AND/OR OBSTRUCTIONS TO VISIBILITY. WIND
SPEEDS ARE IN MILES-PER-HOUR.



USA.gov is the U.S. government's official web portal to all federal, state and local government web resources and services.